Regional Weather Roundup
Issued by NWS

Home | Current Version | Previous Version | Graphics & Text | Print | Product List | Glossary On
Versions: 1 2 3 4 5 6 7 8 9 10 11 12 13 14 15 16 17 18 19 20 21 22 23 24 25 26 27 28 29 30 31 32 33 34 35 36 37 38 39 40 41 42 43 44 45 46 47 48 49 50
000
ASUS45 KCYS 041910
RWRWY

WYOMING REGIONAL WEATHER ROUNDUP
NATIONAL WEATHER SERVICE CHEYENNE WY
100 PM MDT MON MAY 04 2015

NOTE:  "FAIR" INDICATES FEW OR NO CLOUDS BELOW 12,000 FEET
WITH NO SIGNIFICANT WEATHER AND/OR OBSTRUCTIONS TO VISIBILITY.

WYZ001-042000-
YELLOWSTONE NATIONAL PARK

CITY           SKY/WX    TMP DP  RH WIND       PRES   REMARKS
LK YELLOWSTONE   N/A     51  34  52 E5        30.11F
W YELLOWSTONE  NOT AVBL

$$
WYZ002>013-054>058-071-098>099-042000-
NORTHERN WYOMING

CITY           SKY/WX    TMP DP  RH WIND       PRES   REMARKS
JACKSON        MOSUNNY   59  37  44 S9        30.06F
CODY           FAIR      64  39  39 SW3       29.98F
GREYBULL       FAIR      69  39  33 VRB7      29.95F
WORLAND        FAIR      68  42  38 CALM      29.97F
SHERIDAN       FAIR      67  42  40 E5        29.99F
BUFFALO        FAIR      64  46  52 SE13      30.05F
GILLETTE       FAIR      60  42  51 SE28G35   30.07S
HULETT         CLOUDY    54  43  66 E10G16    30.12F
NEWCASTLE      FAIR      52  32  46 SE24G33   30.17S

$$
WYZ014>020-022>026-101>103-042000-
CENTRAL WYOMING

CITY           SKY/WX    TMP DP  RH WIND       PRES   REMARKS
BIG PINEY      FAIR      60  36  40 VRB6      30.08F
PINEDALE       FAIR      59  32  36 CALM      30.08F
DUBOIS         MOCLDY    61  27  27 NW14      30.04F
LANDER         PTSUNNY   62  44  51 VRB6      30.02F
RIVERTON       FAIR      62  42  47 E8        30.03F
CASPER         FAIR      64  45  49 S5        30.03F
DOUGLAS        FAIR      56  42  59 SE21G30   30.08F

$$
WYZ021-027>030-104>119-042000-
SOUTHERN WYOMING

CITY           SKY/WX    TMP DP  RH WIND       PRES   REMARKS
EVANSTON       CLOUDY    62  38  40 NE7       30.05F
KEMMERER       MOCLDY    57  41  54 E3        30.09F
FORT BRIDGER   CLEAR     59  39  47 NE9       30.11F THUNDER
ROCK SPRINGS   FAIR      60  36  40 VRB3      30.06F
DIXON          FAIR      65  38  36 S3        30.07F
RAWLINS        CLOUDY    61  35  37 SE9       30.07F
SARATOGA       FAIR      59  34  38 E6        30.08F
LARAMIE        FAIR      52  41  66 SE22      30.10F
CHEYENNE       CLOUDY    52  41  66 S12       30.14F
TORRINGTON     LGT RAIN  52  37  56 E17G24    30.13F
PINE BLUFFS    MOCLDY    50  45  81 E8        30.15F

$$



USA.gov is the U.S. government's official web portal to all federal, state and local government web resources and services.